Etusivu
METAR-TAF:

METAR-TAF

Lentoasemat :

Mora, Ruotsi

Mora–Siljan

Leveyspiiri: 60-57-31N, Pituuspiiri: 14-30-40E, korkeus merenpinnasta: 193 m

Tämänhetkinen sää

Tämä raportti tehtiin 24 minuuttia sitten, kello 18.20 UTC
Tuuli 3 kn pohjoisesta/koillisesta
Lämpötila 11°C
Kosteus 94%
Ilmanpaine 1026 hPa
Näkyvyys 10 km tai enemmän
heikkoa sadetta

METAR: ESKM 221820Z AUTO 02003KT 9999 -RA FEW015/// SCT018/// BKN026/// 11/10 Q1026

Aika: 20:44 (18:44 UTC)


TAF: puuttuu

Säähavainnot ja -ennusteet yli 4000 lentoasemalta (METAR- ja TAF-raportit).

Käytössä olevat sääasemat on merkitty karttaan keltaisilla ja punaisilla pisteillä.

Aseta hiiri pisteen päälle nähdäksesi sääaseman nimen.

Klikkaa sitten nähdäksesi säähavainnot ja -ennusteet.

Kartan vaihtaminen: klikkaa mustalla rastilla varustettuja vihreitä pisteitä, niin voit zoomata sisään; viivalla varustettua vihreää pistettä, niin voit zoomata ulos tai vihreitä nuolia, niin pääset viereisille kartoille.


METAR-TAF: